Regional Weather Roundup
Issued by NWS

Home | Current Version | Previous Version | Graphics & Text | Print | Product List | Glossary On
Versions: 1 2 3 4 5 6 7 8 9 10 11 12 13 14 15 16 17 18 19 20 21 22 23 24 25 26 27 28 29 30 31 32 33 34 35 36 37 38 39 40 41 42 43 44 45 46 47 48 49 50
000
ASUS43 KOAX 011102
RWRNE

WEATHER ROUNDUP FOR NEBRASKA
NATIONAL WEATHER SERVICE OMAHA NE
600 AM CDT SAT AUG 01 2015

NOTES: SATELLITE DATA IS BEING USED TO AUGMENT CLOUD COVER ABOVE
       12000 FEET.
       "FAIR" INDICATES FEW OR NO CLOUDS BELOW 12,000 FEET WITH NO
       SIGNIFICANT WEATHER AND/OR OBSTRUCTIONS TO VISIBILITY.

  * THESE STATIONS DO NOT REPORT WEATHER SUCH AS RAIN...SNOW OR FOG.

NEZ001>004-019>022-054>056-011200-
NEBRASKA PANHANDLE

CITY           SKY/WX    TMP DP  RH WIND       PRES   REMARKS
SCOTTSBLUFF    CLEAR     64  55  72 E5        30.09F
ALLIANCE       CLEAR     57  54  89 S8        30.09F
CHADRON        CLEAR     57  53  86 W6        30.03F
KIMBALL        CLEAR     60  56  86 S6        30.16F
SIDNEY         CLEAR     63  56  78 SW10      30.15F
$$

NEZ057>060-069>072-079>082-011200-
SOUTHWEST NEBRASKA

CITY           SKY/WX    TMP DP  RH WIND       PRES   REMARKS
NORTH PLATTE   CLEAR     72  59  63 SW12      30.07F
IMPERIAL       CLEAR     65  58  78 SE9       30.13R
LEXINGTON      CLEAR     70  55  58 SW3       30.05F
MCCOOK         PTCLDY    70  53  54 S8        30.09F
$$

NEZ005>010-023>029-035>040-094-011200-
NORTH CENTRAL NEBRASKA

CITY           SKY/WX    TMP DP  RH WIND       PRES   REMARKS
VALENTINE      PTCLDY    66  54  65 CALM      30.09R
BROKEN BOW     CLEAR     64  60  87 CALM      30.09R
O`NEILL        LGT RAIN  68  62  81 W14       30.12R
ORD            MOCLDY    65  62  90 N15       30.12R
$$

NEZ041-046>049-061>064-073>077-083>087-011200-
SOUTH CENTRAL NEBRASKA

CITY           SKY/WX    TMP DP  RH WIND       PRES   REMARKS
GRAND ISLAND   MOCLDY    69  60  73 E10       30.10F
AURORA         MOCLDY    66  64  94 S9        30.10F
HASTINGS       PTCLDY    69  59  70 E13       30.09F
KEARNEY *      PTCLDY    63  59  88 E10       30.08F
$$

NEZ011>018-030>034-042>045-011200-
NORTHEAST NEBRASKA

CITY           SKY/WX    TMP DP  RH WIND       PRES   REMARKS
NORFOLK        MOCLDY    64  62  93 W3        30.06R
BLAIR          FOG       65  63  93 CALM      30.04S VSB 1/2
COLUMBUS *     CLOUDY    64  57  77 CALM      30.08R
TEKAMAH        CLEAR     61  59  93 CALM      30.03S
$$

NEZ050>053-065>068-078-088>093-011200-
SOUTHEAST NEBRASKA

CITY           SKY/WX    TMP DP  RH WIND       PRES   REMARKS
LINCOLN        CLOUDY    65  63  93 CALM      30.05S
OMAHA EPPLEY   PTCLDY    69  66  90 S5        30.03F
FALLS CITY     CLEAR     69  68  96 E3        30.03S
NEBRASKA CITY  MOCLDY    67  66  99 CALM      30.04S
$$

NEZ044-045-051>053-067-011200-
OMAHA AREA

CITY           SKY/WX    TMP DP  RH WIND       PRES   REMARKS
OMAHA EPPLEY   PTCLDY    69  66  90 S5        30.03F
BLAIR          FOG       65  63  93 CALM      30.04S VSB 1/2
OFFUTT AFB     PTCLDY    64  64  99 CALM      30.02F
WAHOO          FAIR      62  61  95 SW3       30.05R
$$


USA.gov is the U.S. government's official web portal to all federal, state and local government web resources and services.